RYR57D EVRA-ESSA

Flight info

Callsign RYR57D
Flight time 0h 51m
Altitude 36000
Route LAPSA DCT RUDNI N623 NEKET DCT TOMBU N616 XILAN
Aircraft B738/M-SDE3FGIJ1LRWY/SB1

Departure

Time 2026-05-07 19:23
Airport Riga International Airport (EVRA)

Arrival

Time 2026-05-07 20:15
Airport Stockholm-Arlanda Airport (ESSA)
Time Latitude Longitude Altitude Speed Heading
2026-05-07 18:56 56.92542 23.97796 43 ft 0 kts 185°
2026-05-07 19:13 56.92556 23.97799 43 ft 4 kts 185°
2026-05-07 19:13 56.92581 23.97803 40 ft 4 kts 202°
2026-05-07 19:14 56.92596 23.97831 39 ft 4 kts 266°
2026-05-07 19:14 56.92596 23.97861 38 ft 0 kts 275°
2026-05-07 19:17 56.92597 23.97845 39 ft 3 kts 275°
2026-05-07 19:18 56.92599 23.97787 41 ft 6 kts 275°
2026-05-07 19:18 56.92603 23.97711 43 ft 6 kts 275°
2026-05-07 19:18 56.92607 23.97635 43 ft 6 kts 275°
2026-05-07 19:18 56.92599 23.97565 43 ft 6 kts 225°
2026-05-07 19:19 56.92542 23.97539 43 ft 12 kts 184°
2026-05-07 19:19 56.92449 23.97522 43 ft 14 kts 185°
2026-05-07 19:19 56.92354 23.97500 43 ft 13 kts 190°
2026-05-07 19:19 56.92263 23.97483 41 ft 13 kts 185°
2026-05-07 19:20 56.92165 23.97466 43 ft 15 kts 185°
2026-05-07 19:20 56.92062 23.97451 43 ft 15 kts 184°
2026-05-07 19:20 56.91965 23.97437 43 ft 14 kts 184°
2026-05-07 19:20 56.91870 23.97428 43 ft 13 kts 185°
2026-05-07 19:21 56.91781 23.97414 43 ft 13 kts 185°
2026-05-07 19:21 56.91692 23.97401 42 ft 13 kts 185°
2026-05-07 19:21 56.91604 23.97387 43 ft 14 kts 185°
2026-05-07 19:21 56.91483 23.97365 43 ft 19 kts 186°
2026-05-07 19:22 56.91365 23.97334 43 ft 12 kts 205°
2026-05-07 19:22 56.91302 23.97221 43 ft 14 kts 231°
2026-05-07 19:22 56.91263 23.97102 43 ft 11 kts 251°
2026-05-07 19:22 56.91277 23.96953 45 ft 13 kts 332°
2026-05-07 19:23 56.91439 23.96962 44 ft 50 kts
2026-05-07 19:23 56.92056 23.97064 43 ft 125 kts
2026-05-07 19:23 56.93095 23.97233 324 ft 159 kts
2026-05-07 19:23 56.94180 23.97392 1294 ft 156 kts
2026-05-07 19:24 56.95249 23.97550 2204 ft 156 kts
2026-05-07 19:24 56.96338 23.97720 2943 ft 161 kts
2026-05-07 19:24 56.97458 23.97828 3745 ft 167 kts 356°
2026-05-07 19:24 56.98547 23.96645 4081 ft 204 kts 309°
2026-05-07 19:25 56.99233 23.94252 4579 ft 217 kts 300°
2026-05-07 19:25 56.99906 23.91706 5081 ft 230 kts 300°
2026-05-07 19:25 57.00646 23.88934 5291 ft 259 kts 300°
2026-05-07 19:25 57.01462 23.85894 5979 ft 268 kts 299°
2026-05-07 19:26 57.02295 23.82801 6841 ft 271 kts 299°
2026-05-07 19:26 57.03141 23.79683 7695 ft 273 kts 299°
2026-05-07 19:26 57.03997 23.76550 8547 ft 276 kts 298°
2026-05-07 19:26 57.04856 23.73417 9384 ft 278 kts 298°
2026-05-07 19:27 57.05734 23.70223 10215 ft 281 kts 298°
2026-05-07 19:27 57.06638 23.66945 10770 ft 293 kts 298°
2026-05-07 19:27 57.07574 23.63553 11444 ft 300 kts 297°
2026-05-07 19:27 57.08523 23.60110 12262 ft 302 kts 297°
2026-05-07 19:28 57.09464 23.56693 13151 ft 303 kts 296°
2026-05-07 19:28 57.10419 23.53224 14038 ft 305 kts 296°
2026-05-07 19:28 57.11384 23.49714 14825 ft 308 kts 295°
2026-05-07 19:28 57.12356 23.46175 15628 ft 310 kts 295°
2026-05-07 19:29 57.13320 23.42659 16433 ft 313 kts 294°
2026-05-07 19:29 57.14304 23.39067 17234 ft 316 kts 294°
2026-05-07 19:29 57.15297 23.35433 18038 ft 319 kts 294°
2026-05-07 19:29 57.16302 23.31753 18769 ft 322 kts 293°
2026-05-07 19:30 57.17315 23.28037 19453 ft 325 kts 293°
2026-05-07 19:30 57.18325 23.24326 20128 ft 328 kts 293°
2026-05-07 19:30 57.19353 23.20543 20801 ft 331 kts 292°
2026-05-07 19:30 57.20391 23.16720 21474 ft 334 kts 292°
2026-05-07 19:31 57.21437 23.12857 22198 ft 337 kts 292°
2026-05-07 19:31 57.22491 23.08962 22871 ft 339 kts 292°
2026-05-07 19:31 57.23548 23.05044 23531 ft 342 kts 292°
2026-05-07 19:31 57.24598 23.01148 24115 ft 344 kts 292°
2026-05-07 19:32 57.25666 22.97179 24672 ft 346 kts 292°
2026-05-07 19:32 57.26749 22.93145 25175 ft 351 kts 291°
2026-05-07 19:32 57.27844 22.89057 25601 ft 356 kts 291°
2026-05-07 19:32 57.28933 22.84986 26091 ft 359 kts 291°
2026-05-07 19:33 57.30052 22.80800 26620 ft 361 kts 291°
2026-05-07 19:33 57.31166 22.76624 27145 ft 363 kts 291°
2026-05-07 19:33 57.32274 22.72465 27686 ft 365 kts 291°
2026-05-07 19:33 57.33394 22.68252 28343 ft 363 kts 290°
2026-05-07 19:34 57.34505 22.64071 29066 ft 359 kts 290°
2026-05-07 19:34 57.35604 22.59923 29694 ft 359 kts 291°
2026-05-07 19:34 57.36704 22.55756 30176 ft 361 kts 291°
2026-05-07 19:34 57.37804 22.51588 30692 ft 359 kts 291°
2026-05-07 19:35 57.38884 22.47488 31228 ft 357 kts 291°
2026-05-07 19:35 57.39992 22.43358 31714 ft 358 kts 294°
2026-05-07 19:35 57.41375 22.39470 32145 ft 364 kts 303°
2026-05-07 19:35 57.43082 22.35951 32615 ft 366 kts 307°
2026-05-07 19:36 57.44813 22.32568 33083 ft 366 kts 307°
2026-05-07 19:36 57.46577 22.29147 33519 ft 365 kts 307°
2026-05-07 19:36 57.48337 22.25726 33958 ft 365 kts 307°
2026-05-07 19:36 57.50090 22.22302 34348 ft 364 kts 307°
2026-05-07 19:37 57.51812 22.18921 34662 ft 364 kts 307°
2026-05-07 19:37 57.53554 22.15484 34973 ft 366 kts 307°
2026-05-07 19:37 57.55309 22.12007 35190 ft 368 kts 308°
2026-05-07 19:37 57.57073 22.08505 35445 ft 370 kts 308°
2026-05-07 19:38 57.58837 22.04997 35690 ft 372 kts 308°
2026-05-07 19:38 57.60610 22.01466 35940 ft 373 kts 308°
2026-05-07 19:38 57.62368 21.97959 36144 ft 376 kts 308°
2026-05-07 19:38 57.64174 21.94345 36129 ft 384 kts 308°
2026-05-07 19:39 57.67882 21.86910 36150 ft 396 kts 308°
2026-05-07 19:39 57.71686 21.79261 36176 ft 411 kts 308°
2026-05-07 19:40 57.75653 21.71259 36158 ft 425 kts 308°
2026-05-07 19:40 57.79707 21.63060 36147 ft 434 kts 309°
2026-05-07 19:41 57.83814 21.54731 36137 ft 434 kts 309°
2026-05-07 19:41 57.87889 21.46433 36138 ft 433 kts 309°
2026-05-07 19:42 57.91955 21.38118 36142 ft 430 kts 309°
2026-05-07 19:42 57.96001 21.29814 36143 ft 428 kts 309°
2026-05-07 19:43 57.99983 21.21611 36158 ft 425 kts 309°
2026-05-07 19:43 58.03971 21.13363 36148 ft 423 kts 309°
2026-05-07 19:44 58.07910 21.05188 36156 ft 422 kts 309°
2026-05-07 19:44 58.11860 20.96964 36158 ft 421 kts 309°
2026-05-07 19:45 58.15799 20.88729 36158 ft 422 kts 309°
2026-05-07 19:45 58.19737 20.80470 36169 ft 423 kts 308°
2026-05-07 19:46 58.23663 20.72208 36169 ft 423 kts 309°
2026-05-07 19:46 58.27598 20.63899 36168 ft 422 kts 308°
2026-05-07 19:47 58.31885 20.56308 36173 ft 427 kts 322°
2026-05-07 19:47 58.37054 20.50635 36168 ft 429 kts 327°
2026-05-07 19:48 58.42291 20.45176 36174 ft 428 kts 327°
2026-05-07 19:48 58.47469 20.39707 36164 ft 427 kts 327°
2026-05-07 19:49 58.52660 20.34154 36176 ft 426 kts 326°
2026-05-07 19:49 58.57836 20.28580 36192 ft 426 kts 326°
2026-05-07 19:50 58.62970 20.23030 36174 ft 425 kts 326°
2026-05-07 19:50 58.68126 20.17438 36174 ft 425 kts 326°
2026-05-07 19:51 58.73280 20.11831 36180 ft 424 kts 326°
2026-05-07 19:51 58.78379 20.06264 36180 ft 423 kts 326°
2026-05-07 19:52 58.83502 20.00652 36178 ft 423 kts 326°
2026-05-07 19:52 58.88645 19.94995 35132 ft 430 kts 326°
2026-05-07 19:53 58.91251 19.92121 34361 ft 432 kts 326°
2026-05-07 19:53 58.93845 19.89259 33685 ft 427 kts 326°
2026-05-07 19:53 58.96410 19.86428 32940 ft 420 kts 326°
2026-05-07 19:53 58.98939 19.83631 32256 ft 418 kts 325°
2026-05-07 19:54 59.01468 19.80823 31554 ft 417 kts 325°
2026-05-07 19:54 59.03961 19.78050 30840 ft 417 kts 325°
2026-05-07 19:54 59.06486 19.75235 30088 ft 418 kts 325°
2026-05-07 19:54 59.09009 19.72420 29220 ft 418 kts 325°
2026-05-07 19:55 59.11529 19.69603 28400 ft 417 kts 325°
2026-05-07 19:55 59.14041 19.66793 27785 ft 412 kts 325°
2026-05-07 19:55 59.16489 19.64050 27163 ft 407 kts 325°
2026-05-07 19:55 59.18934 19.61306 26594 ft 402 kts 325°
2026-05-07 19:56 59.21351 19.58588 26017 ft 398 kts 325°
2026-05-07 19:56 59.23745 19.55890 25453 ft 394 kts 325°
2026-05-07 19:56 59.25314 19.54121 25081 ft 392 kts 325°
2026-05-07 19:56 59.28433 19.50599 24353 ft 388 kts 325°
2026-05-07 19:57 59.30764 19.47961 23808 ft 385 kts 325°
2026-05-07 19:57 59.33077 19.45338 23157 ft 383 kts 325°
2026-05-07 19:57 59.34601 19.43609 22757 ft 380 kts 325°
2026-05-07 19:57 59.36882 19.41017 22205 ft 375 kts 325°
2026-05-07 19:58 59.39131 19.38457 21657 ft 371 kts 325°
2026-05-07 19:58 59.41352 19.35924 21102 ft 368 kts 325°
2026-05-07 19:58 59.43555 19.33407 20565 ft 364 kts 325°
2026-05-07 19:58 59.45719 19.30932 20036 ft 361 kts 326°
2026-05-07 19:59 59.47890 19.28444 19507 ft 358 kts 326°
2026-05-07 19:59 59.50039 19.25977 18982 ft 356 kts 326°
2026-05-07 19:59 59.52178 19.23519 18457 ft 354 kts 326°
2026-05-07 19:59 59.54297 19.21080 17870 ft 351 kts 326°
2026-05-07 20:00 59.56373 19.18689 17344 ft 348 kts 326°
2026-05-07 20:00 59.58463 19.16277 16806 ft 345 kts 326°
2026-05-07 20:00 59.60527 19.13893 16309 ft 342 kts 327°
2026-05-07 20:00 59.62497 19.11280 15773 ft 337 kts 314°
2026-05-07 20:01 59.63848 19.07645 15318 ft 331 kts 295°
2026-05-07 20:01 59.64540 19.03333 14984 ft 327 kts 281°
2026-05-07 20:01 59.64639 18.98836 14666 ft 335 kts 264°
2026-05-07 20:01 59.64122 18.94232 14383 ft 349 kts 257°
2026-05-07 20:02 59.63431 18.89567 14047 ft 355 kts 255°
2026-05-07 20:02 59.62713 18.84905 13675 ft 351 kts 255°
2026-05-07 20:02 59.62027 18.80348 13328 ft 348 kts 256°
2026-05-07 20:02 59.61354 18.75769 13001 ft 345 kts 256°
2026-05-07 20:03 59.60691 18.71228 12693 ft 343 kts 256°
2026-05-07 20:03 59.60031 18.66698 12349 ft 342 kts 256°
2026-05-07 20:03 59.59369 18.62170 11997 ft 343 kts 256°
2026-05-07 20:03 59.58715 18.57703 11663 ft 340 kts 256°
2026-05-07 20:04 59.58063 18.53269 11332 ft 331 kts 256°
2026-05-07 20:04 59.57428 18.48956 11034 ft 323 kts 256°
2026-05-07 20:04 59.56805 18.44739 10736 ft 316 kts 256°
2026-05-07 20:04 59.56193 18.40614 10469 ft 309 kts 256°
2026-05-07 20:05 59.55593 18.36568 10199 ft 303 kts 257°
2026-05-07 20:05 59.55396 18.32621 10126 ft 283 kts 279°
2026-05-07 20:05 59.55980 18.29077 9852 ft 269 kts 299°
2026-05-07 20:05 59.57160 18.26224 9484 ft 269 kts 319°
2026-05-07 20:06 59.58749 18.24293 9181 ft 268 kts 336°
2026-05-07 20:06 59.60539 18.23342 8896 ft 267 kts 353°
2026-05-07 20:06 59.62403 18.23646 8675 ft 269 kts
2026-05-07 20:06 59.64247 18.24300 8403 ft 269 kts
2026-05-07 20:07 59.66098 18.24984 8017 ft 273 kts
2026-05-07 20:07 59.67947 18.25672 7693 ft 273 kts
2026-05-07 20:07 59.69809 18.26364 7420 ft 270 kts
2026-05-07 20:07 59.71639 18.27043 7170 ft 266 kts
2026-05-07 20:08 59.73454 18.27714 6931 ft 263 kts
2026-05-07 20:08 59.75247 18.28376 6696 ft 262 kts
2026-05-07 20:08 59.77022 18.29019 6455 ft 260 kts
2026-05-07 20:08 59.78807 18.28767 6209 ft 257 kts 339°
2026-05-07 20:09 59.80278 18.26817 6021 ft 256 kts 310°
2026-05-07 20:09 59.81219 18.23892 5734 ft 257 kts 299°
2026-05-07 20:09 59.82053 18.20718 5288 ft 258 kts 298°
2026-05-07 20:10 59.83629 18.14513 4809 ft 237 kts 297°
2026-05-07 20:10 59.84219 18.11550 4662 ft 226 kts 280°
2026-05-07 20:10 59.84386 18.08520 4542 ft 214 kts 277°
2026-05-07 20:10 59.84449 18.05655 4247 ft 209 kts 260°
2026-05-07 20:11 59.83803 18.03222 4082 ft 196 kts 223°
2026-05-07 20:11 59.82771 18.01440 3782 ft 196 kts 218°
2026-05-07 20:11 59.81708 17.99728 3476 ft 196 kts 218°
2026-05-07 20:11 59.80646 17.98033 3150 ft 195 kts 216°
2026-05-07 20:12 59.79418 17.97044 2825 ft 191 kts 187°
2026-05-07 20:12 59.78110 17.96609 2525 ft 188 kts 192°
2026-05-07 20:12 59.76846 17.96073 2265 ft 184 kts 192°
2026-05-07 20:12 59.75616 17.95594 2112 ft 173 kts 189°
2026-05-07 20:13 59.74452 17.95209 1839 ft 170 kts 189°
2026-05-07 20:13 59.73301 17.94821 1593 ft 164 kts 190°
2026-05-07 20:13 59.72198 17.94365 1319 ft 157 kts 191°
2026-05-07 20:13 59.71164 17.93976 1112 ft 145 kts 188°
2026-05-07 20:14 59.70190 17.93661 891 ft 143 kts 188°
2026-05-07 20:14 59.69213 17.93301 691 ft 142 kts 189°
2026-05-07 20:14 59.68237 17.92958 502 ft 143 kts 188°
2026-05-07 20:14 59.67257 17.92593 305 ft 143 kts 189°
2026-05-07 20:15 59.66300 17.92253 120 ft 137 kts 189°
2026-05-07 20:15 59.65542 17.91979 106 ft 80 kts 190°
2026-05-07 20:15 59.65202 17.91904 104 ft 25 kts 171°
2026-05-07 20:15 59.65056 17.91986 103 ft 16 kts 157°
2026-05-07 20:16 59.64978 17.92062 103 ft 8 kts 136°
2026-05-07 20:16 59.64968 17.92100 104 ft 2 kts 106°
2026-05-07 20:16 59.64967 17.92138 106 ft 4 kts 91°
2026-05-07 20:16 59.64966 17.92224 109 ft 6 kts 91°
2026-05-07 20:17 59.64940 17.92281 111 ft 6 kts 174°
2026-05-07 20:17 59.64895 17.92272 111 ft 7 kts 190°
2026-05-07 20:17 59.64847 17.92255 111 ft 7 kts 190°
2026-05-07 20:17 59.64798 17.92237 111 ft 8 kts 190°
2026-05-07 20:18 59.64738 17.92218 111 ft 9 kts 189°
2026-05-07 20:18 59.64686 17.92239 111 ft 8 kts 131°
2026-05-07 20:18 59.64671 17.92336 111 ft 7 kts 106°
2026-05-07 20:18 59.64658 17.92433 111 ft 7 kts 94°
2026-05-07 20:19 59.64679 17.92516 110 ft 7 kts 39°
2026-05-07 20:19 59.64712 17.92566 111 ft 3 kts 37°
2026-05-07 20:19 59.64726 17.92586 111 ft 3 kts 35°
2026-05-07 20:19 59.64733 17.92596 111 ft 0 kts 35°